Theta_e
303 303 306 308 309 310 308 305 303 303 303 304 305 306 306 304 304 305 305 306 305 302 302 305 306 307 307 307 308 306 307 308 312 313 318 320 320 320 322 325 326 327 326 322 321 326 328 325 334 339 337 333 334 336
303 303 305 308 308 309 308 305 303 303 303 303 304 305 306 306 305 305 305 305 304 303 302 306 306 307 307 308 306 306 305 306 309 314 314 314 323 322 322 324 324 327 324 322 323 325 323 324 325 324 323 330 334 336
302 303 304 308 308 309 308 304 304 303 304 305 305 304 305 306 305 306 306 305 305 302 302 301 303 306 305 306 306 306 304 305 310 307 309 310 314 316 322 326 322 325 322 326 324 324 323 324 323 324 324 327 330 333
303 303 303 307 307 308 307 304 303 303 305 305 305 305 305 306 306 306 307 306 305 305 305 302 305 306 306 307 306 307 306 307 306 306 308 309 312 310 315 315 315 319 321 327 327 323 332 328 327 324 326 333 335 334
303 303 303 306 307 307 307 304 304 305 304 305 305 306 306 305 306 306 306 307 307 305 303 302 304 306 306 305 305 306 306 303 307 308 307 309 308 311 310 312 314 316 321 329 333 327 321 323 323 321 324 330 330 336
304 303 304 306 307 307 307 304 303 303 304 304 304 305 305 305 307 307 305 308 307 306 306 310 305 304 306 306 306 305 304 303 305 306 306 306 306 309 309 311 308 312 314 319 322 316 315 315 319 328 326 332 329 333
304 304 304 307 306 306 307 304 304 303 304 304 305 305 306 306 306 306 306 307 307 306 307 309 303 302 306 307 306 304 305 304 306 306 307 308 308 310 308 311 308 308 311 310 310 311 314 319 326 327 334 335 328 336
304 304 305 306 306 306 307 304 303 303 303 304 304 305 305 306 307 307 306 306 307 307 304 304 306 305 309 309 310 307 306 306 306 308 309 311 311 313 314 310 309 309 309 310 311 312 312 313 323 323 337 335 331 340
303 304 305 306 306 307 306 303 304 304 304 304 304 305 307 307 308 307 308 308 307 307 309 309 308 307 308 311 314 313 312 313 311 313 312 313 313 315 312 310 309 309 310 311 313 317 321 320 320 324 335 338 330 338
304 305 306 306 306 307 304 303 304 304 304 305 307 307 308 308 309 309 309 308 307 308 308 309 308 309 309 311 311 315 313 314 315 312 312 314 313 311 311 309 308 309 310 311 314 319 318 320 320 319 320 337 339 334
304 306 306 306 306 306 305 304 304 304 307 308 306 309 308 307 309 310 312 311 310 311 309 309 309 309 308 310 311 313 315 316 317 316 314 315 313 311 310 310 309 310 311 311 316 318 317 317 317 318 320 338 340 338
304 306 306 306 305 306 304 304 304 304 305 304 304 305 306 307 308 311 313 311 312 313 310 309 311 309 309 309 313 314 314 314 315 316 315 317 313 311 310 310 309 310 310 311 314 316 316 317 317 320 335 348 342 340
304 306 306 306 305 305 304 304 305 305 304 305 305 307 308 308 309 313 310 312 317 316 316 312 317 313 311 312 315 319 318 320 318 313 319 322 318 317 312 311 311 310 311 313 315 316 316 318 320 327 352 346 347 341
304 306 306 305 306 305 304 304 305 306 305 305 309 309 310 313 311 312 312 317 317 318 316 317 319 318 316 317 317 321 320 322 323 321 320 326 327 323 318 315 313 313 313 316 316 317 319 322 328 349 354 356 349 343
306 306 305 305 306 305 304 305 305 305 305 307 309 310 310 310 309 310 310 314 315 314 313 316 320 317 319 318 320 320 323 327 329 332 328 329 329 327 328 318 316 317 317 318 320 323 325 333 349 350 353 357 360 361
306 305 307 307 307 306 305 305 306 306 307 307 309 310 309 309 311 312 311 311 311 311 311 314 321 322 320 320 322 322 325 329 327 323 323 328 328 326 325 326 331 331 327 326 327 333 343 345 348 348 350 353 359 365
305 305 306 306 307 307 306 306 306 308 308 309 308 307 308 308 308 308 309 311 309 310 317 316 322 322 321 320 322 321 322 323 322 322 325 325 325 326 324 325 326 333 335 335 336 339 341 344 348 348 351 349 354 361
305 305 307 307 307 305 307 307 307 308 310 309 308 308 308 308 309 309 311 311 311 312 311 318 313 320 323 324 320 321 321 321 322 324 325 323 324 324 324 325 326 335 333 332 333 336 337 338 341 342 342 348 351 354
305 305 306 306 305 305 306 308 307 309 309 309 309 308 308 309 310 310 311 310 310 310 311 313 316 318 323 323 324 324 324 323 322 324 324 322 322 324 324 328 332 331 331 331 332 334 336 336 337 340 344 348 345 348
305 305 306 305 305 306 309 309 306 307 310 310 310 311 311 311 310 310 310 310 311 313 315 316 315 316 317 318 318 319 322 320 320 323 323 321 321 324 324 326 326 328 327 330 330 332 334 334 335 337 341 343 344 342
305 308 308 306 306 305 308 310 310 309 309 311 311 311 312 311 312 312 313 311 313 314 315 315 315 314 311 311 313 316 315 320 320 320 321 322 322 324 323 323 322 324 324 326 328 329 331 332 333 335 336 342 344 343
305 307 308 308 308 309 308 309 309 309 310 312 312 312 313 315 316 315 312 312 313 313 312 312 313 313 314 312 311 312 314 316 320 320 321 321 323 324 323 323 320 321 321 325 327 328 328 331 333 336 336 339 339 337
305 307 307 308 312 308 309 309 312 312 315 314 314 316 317 317 316 311 314 313 313 312 312 313 313 313 314 314 314 315 316 317 319 321 320 320 321 322 321 320 317 319 321 325 328 328 328 331 333 334 334 333 333 332
307 308 311 313 312 312 312 315 313 314 314 316 318 320 321 320 314 316 318 317 316 315 316 316 316 316 316 316 317 316 316 318 319 322 321 321 319 319 319 319 316 318 326 329 329 328 327 328 331 331 330 329 327 325
307 308 310 309 312 316 318 318 319 319 320 320 321 324 320 317 322 321 321 319 317 318 318 317 318 319 319 318 318 317 318 318 320 322 322 321 318 318 320 325 326 327 327 329 328 327 327 327 326 327 326 325 322 321
309 313 312 317 318 318 319 320 320 320 320 321 323 322 320 318 320 321 319 317 318 317 317 318 319 319 318 316 317 314 317 319 319 319 321 324 320 316 322 324 325 325 328 328 328 325 324 324 323 322 323 324 321 320
313 316 315 314 317 317 318 317 317 319 319 322 321 321 320 320 320 319 316 314 316 317 318 320 319 319 318 316 316 317 318 320 321 323 323 323 324 324 324 322 321 324 325 325 325 324 322 320 319 320 319 319 319 318
315 317 318 317 317 315 317 319 321 322 321 318 318 320 321 321 320 316 315 317 317 318 321 320 322 321 319 319 320 322 323 323 323 323 322 322 322 322 323 323 323 322 322 321 321 320 320 319 318 317 316 315 315 315
314 315 316 318 318 318 319 323 324 319 319 319 321 321 320 318 317 317 319 320 319 319 320 320 319 321 321 321 321 321 323 323 321 320 319 318 317 320 321 321 320 319 318 318 317 317 317 316 315 314 314 314 314 314
317 317 319 321 325 326 325 323 322 322 319 319 318 318 318 319 322 320 319 320 317 318 319 318 318 319 318 317 318 318 320 322 323 321 319 318 317 319 320 320 319 319 319 318 317 316 316 316 315 314 313 313 313 312
316 317 321 325 326 324 324 322 322 322 320 321 320 320 321 320 320 318 317 318 318 317 318 318 318 318 318 318 317 315 318 319 319 319 319 318 319 319 320 320 320 320 319 318 318 319 319 318 317 316 315 314 313 313
322 324 325 327 325 323 322 324 324 323 322 321 322 321 321 323 322 317 317 316 316 315 316 317 316 316 317 318 318 318 318 318 319 319 318 318 318 317 318 317 318 317 317 319 321 321 320 318 316 316 316 315 315 314
324 325 325 325 325 325 322 322 321 322 322 323 324 324 323 324 326 321 318 316 316 316 317 317 317 316 316 316 316 316 316 316 315 317 316 315 316 316 316 316 316 316 316 317 318 318 315 315 316 316 315 314 314 314
Wind_Speed
23 19 16 15 15 14 14 13 12 11 10 10 10 9 10 10 9 10 4 7 4 1 5 4 1 3 1 2 3 3 4 3 3 2 2 2 2 4 3 4 6 3 2 4 3 4 6 3 5 16 13 8 7 11
24 20 18 17 16 13 13 14 12 12 11 10 10 8 8 9 8 8 2 4 8 4 6 10 17 16 14 8 4 2 2 2 4 2 1 1 2 3 3 3 2 3 4 3 6 6 5 3 6 6 5 9 9 5
25 23 17 17 14 12 13 14 12 12 13 13 12 9 7 8 7 7 7 9 5 2 5 2 6 12 21 26 26 4 2 4 0 2 3 2 4 1 2 3 4 2 4 2 6 6 7 6 7 6 5 8 10 9
25 22 18 16 14 12 13 14 12 11 12 12 11 11 9 9 8 9 10 8 4 4 3 6 5 5 2 4 12 26 11 4 4 2 2 3 2 2 3 3 2 4 7 3 5 9 17 7 13 14 16 7 7 3
24 20 17 16 15 13 14 14 12 12 12 11 11 11 11 10 10 12 16 19 18 4 3 5 20 13 5 16 19 15 15 4 3 2 2 3 2 1 2 1 6 4 6 3 5 4 2 10 18 28 27 24 10 3
24 20 19 17 16 13 12 13 13 12 11 12 12 11 12 9 8 6 3 2 6 15 1 3 5 4 8 7 9 9 12 4 4 4 4 4 4 5 3 4 10 6 10 5 6 10 14 22 28 21 20 25 21 7
23 21 20 15 15 12 13 14 13 12 12 13 12 13 11 9 8 4 3 2 5 14 2 4 4 4 4 2 2 2 10 4 4 4 4 4 4 6 4 16 6 7 7 13 16 16 18 14 14 28 29 25 16 6
22 20 19 15 15 13 12 13 13 12 13 14 14 12 14 11 9 10 20 20 10 2 1 2 4 4 1 2 2 3 3 3 3 4 1 7 2 4 8 16 16 21 20 24 25 18 21 24 23 27 25 19 7 8
22 21 19 16 14 12 11 12 13 13 14 14 16 14 3 4 4 3 7 5 22 4 2 3 2 4 0 2 2 2 3 2 3 5 8 6 8 11 19 22 17 13 11 15 13 15 15 18 21 24 24 15 8 11
22 22 19 16 13 11 11 11 12 13 15 13 4 2 2 4 3 6 2 2 2 3 3 3 3 4 1 1 3 2 3 3 3 6 4 7 17 27 25 20 13 12 20 18 16 18 18 17 16 21 24 20 10 11
21 21 16 13 12 11 11 10 10 12 4 1 1 1 3 3 1 3 2 3 3 3 4 3 8 7 2 4 5 3 2 3 4 5 8 6 11 28 30 27 22 18 18 19 14 17 17 17 20 21 25 20 13 8
20 16 13 14 13 10 10 8 7 5 3 6 8 9 4 2 2 4 3 3 5 4 4 3 4 5 3 4 5 4 4 5 8 4 5 5 21 19 22 29 27 26 25 24 18 20 23 22 23 21 23 17 10 8
19 17 16 15 11 9 9 7 6 7 9 3 2 2 2 3 3 5 5 4 3 3 2 3 4 4 3 4 5 4 7 7 4 3 4 5 17 17 18 18 22 26 26 19 20 20 24 24 32 26 18 13 10 3
18 17 18 13 11 10 8 6 6 3 2 1 3 3 4 5 4 4 1 5 2 2 7 6 3 4 3 4 3 4 4 4 5 5 4 8 18 8 7 17 19 22 21 20 21 21 22 20 22 21 10 7 5 5
16 15 13 13 10 10 7 3 4 4 2 3 3 4 5 5 3 4 4 3 2 3 3 5 3 3 3 4 3 4 4 5 4 5 7 10 13 10 6 8 9 13 15 16 17 15 17 20 13 6 5 6 2 2
13 9 3 5 4 4 7 5 3 3 3 3 5 4 3 4 5 2 4 5 2 3 4 3 3 3 4 2 3 4 4 4 5 7 11 10 13 14 12 6 5 9 13 11 9 13 9 7 6 4 6 7 3 2
8 3 3 1 2 5 5 5 4 4 3 4 3 3 5 6 7 7 5 4 1 3 2 3 4 4 3 2 3 2 4 5 8 11 7 7 11 14 13 9 5 3 6 7 7 6 3 6 4 0 2 6 7 1
4 4 4 6 9 9 2 7 3 3 5 4 3 3 3 4 5 5 3 3 2 1 1 2 2 3 2 3 3 5 7 7 9 7 7 10 11 12 10 8 5 7 7 5 6 5 5 4 4 2 4 5 3 5
12 13 12 13 8 5 2 3 3 3 4 2 4 4 3 4 5 6 3 3 3 2 2 2 3 3 2 2 4 7 4 4 8 6 6 11 12 12 9 8 9 6 6 5 6 5 8 12 5 5 4 1 3 5
13 12 10 11 7 3 3 2 4 3 3 2 3 3 2 3 2 2 3 3 2 2 3 3 4 2 1 2 2 3 3 3 7 6 8 9 9 10 10 5 4 8 6 9 11 13 13 10 12 12 8 6 4 5
7 1 6 9 9 8 3 2 3 3 3 3 2 2 3 2 2 1 1 3 2 2 3 3 3 2 3 3 9 4 4 3 3 2 3 5 9 9 7 10 14 9 4 2 4 4 9 6 12 14 12 12 14 15
3 5 2 4 5 4 3 5 3 3 2 3 3 2 3 2 2 1 1 2 2 3 3 2 2 2 3 4 5 7 10 10 11 4 7 9 8 7 8 8 7 3 4 4 7 6 8 15 16 18 14 11 18 19
5 2 3 3 2 2 5 3 3 3 3 3 2 3 2 2 1 1 2 3 3 4 4 3 5 8 6 11 12 9 7 4 1 4 4 10 13 15 12 15 9 1 4 6 19 16 13 15 17 17 15 16 14 15
3 2 2 2 3 3 2 3 2 2 2 2 2 3 3 2 2 1 3 3 3 2 3 4 4 3 4 4 2 2 5 2 1 6 9 5 3 5 19 15 3 4 8 10 14 12 15 17 18 18 16 17 17 16
2 3 1 4 3 3 3 3 2 2 3 2 2 2 2 1 3 4 4 3 3 6 6 5 3 3 3 3 2 3 7 2 2 3 14 12 2 3 2 1 15 14 8 11 8 10 13 14 16 16 14 14 14 14
2 2 3 3 2 1 3 3 3 4 3 4 3 2 2 0 1 4 3 2 3 3 6 4 2 2 1 1 1 2 2 5 4 3 8 13 3 6 3 4 3 9 13 9 8 10 10 9 11 11 12 12 12 13
3 3 3 2 2 2 2 3 3 2 3 3 4 3 3 4 3 3 3 3 2 6 12 8 3 1 0 1 1 3 4 1 3 7 12 18 18 12 10 7 5 6 9 9 8 7 10 9 10 10 12 12 11 10
3 2 3 3 2 1 2 3 3 2 3 3 2 4 4 5 3 3 3 11 10 11 15 15 13 7 4 4 4 4 11 19 22 22 23 23 21 20 19 16 12 9 13 14 13 13 13 13 13 12 12 12 12 10
3 2 1 3 2 2 2 2 3 2 2 2 2 3 3 2 3 2 7 12 16 16 11 11 14 13 16 18 19 15 16 12 7 7 7 3 4 12 12 13 16 18 19 21 19 18 18 18 17 16 13 13 12 12
3 3 2 2 3 3 2 1 3 3 2 2 1 3 4 3 5 10 18 19 14 11 13 14 13 15 11 10 8 17 17 9 7 5 3 2 2 6 9 12 14 17 18 19 19 17 17 17 16 17 19 19 18 18
3 2 2 2 1 1 3 4 4 3 3 3 2 1 3 3 6 14 17 19 19 15 13 10 10 12 10 10 8 5 7 15 15 15 14 13 12 12 12 10 8 6 7 8 9 8 8 11 15 15 16 17 16 18
2 2 1 2 1 1 2 3 3 3 4 4 4 4 7 6 6 5 5 17 21 15 16 16 14 13 15 15 15 14 13 11 12 12 12 13 12 10 9 8 7 6 8 11 12 11 10 14 18 18 16 16 16 17
1 1 0 2 3 4 3 3 4 4 4 4 4 3 2 3 5 4 6 9 13 17 18 17 15 14 14 14 15 15 16 17 16 14 13 13 11 10 10 12 11 11 11 12 13 14 14 13 12 12 12 13 14 13
Wind_Direction
337 327 318 310 313 296 298 303 300 305 311 319 324 328 334 342 352 357 348 51 43 264 277 221 202 192 342 133 163 282 5 348 18 73 158 252 219 251 231 224 159 151 135 213 102 157 251 308 73 170 216 265 240 218
335 324 319 317 310 294 294 299 292 296 300 305 310 313 319 327 340 338 306 330 315 193 244 277 273 244 237 207 151 219 194 248 214 110 10 37 270 324 354 243 280 232 193 223 194 209 250 294 211 249 229 233 267 204
334 328 314 317 308 294 294 299 292 296 301 304 303 303 304 308 310 302 293 316 309 301 289 349 247 263 244 236 233 164 268 216 164 172 164 190 251 113 252 266 298 6 356 228 11 294 268 266 285 268 296 275 274 267
332 328 313 315 302 296 297 299 291 292 298 299 301 302 305 307 304 285 270 279 272 269 274 278 350 291 255 193 217 217 221 93 104 93 159 188 204 192 247 283 237 255 343 287 276 301 318 22 344 329 314 312 297 284
332 328 316 315 306 294 292 298 292 293 295 296 299 301 301 300 296 287 280 267 250 214 252 290 302 301 251 244 231 212 212 141 158 163 166 212 214 194 253 310 241 197 217 208 240 103 232 291 314 301 300 290 293 219
331 323 315 312 306 292 288 294 288 290 293 295 301 300 300 296 296 327 316 29 243 207 283 288 278 292 298 261 222 187 202 179 166 161 198 218 215 158 227 244 240 210 229 198 268 325 301 294 289 282 268 269 272 199
329 324 321 309 307 287 288 293 291 292 295 299 300 303 293 283 256 202 231 117 66 170 233 294 287 276 292 238 245 206 199 193 166 192 206 174 202 186 224 250 237 282 268 291 291 308 298 291 308 312 298 277 257 188
325 323 322 310 304 288 285 293 292 294 298 301 305 301 296 281 263 257 268 237 242 219 134 266 274 327 263 304 281 174 157 152 229 214 139 211 186 206 243 244 238 247 253 266 270 275 267 280 296 304 301 270 187 180
323 320 318 310 299 293 287 292 296 301 304 306 306 303 270 198 213 256 300 231 206 220 248 218 267 275 93 261 274 238 172 180 218 216 216 184 213 222 231 233 232 218 217 249 268 269 275 276 290 296 307 301 215 177
320 319 309 302 295 289 293 294 303 310 311 305 281 149 246 215 263 212 216 136 155 208 228 255 185 247 127 18 300 286 195 215 229 215 166 224 235 234 237 236 235 219 229 242 254 262 265 271 279 291 294 298 279 204
321 319 308 298 293 288 292 297 311 323 342 356 18 249 329 326 252 217 214 183 171 226 214 241 215 228 154 202 212 211 256 214 239 212 198 226 243 228 227 226 222 225 234 243 237 249 264 266 278 287 292 288 284 188
319 323 311 304 296 284 286 295 310 326 325 325 294 292 264 208 230 261 189 189 206 236 205 206 203 189 202 209 225 181 229 207 244 182 228 248 256 232 214 219 219 224 231 238 237 249 257 263 266 270 274 271 254 212
312 314 305 304 288 273 276 288 298 298 306 290 224 243 204 169 241 219 210 223 219 206 243 235 204 171 196 207 235 224 223 228 144 225 240 246 253 255 218 199 201 215 220 226 236 242 251 256 267 264 260 256 260 212
309 308 303 290 276 268 267 280 294 271 250 224 241 239 221 200 236 207 254 316 274 316 313 288 213 193 184 202 231 265 247 278 235 234 258 296 347 20 155 181 186 204 206 204 223 233 243 253 262 265 270 282 203 178
310 309 306 297 275 251 245 248 199 198 230 250 238 238 232 253 286 296 285 297 327 260 298 289 226 185 200 244 228 277 253 259 274 334 319 335 0 28 68 130 169 190 188 200 210 224 243 250 252 249 299 315 258 277
315 320 16 38 71 153 178 191 235 222 233 233 234 248 247 268 266 257 296 287 254 289 291 228 263 234 215 263 254 242 270 317 325 326 318 333 349 358 17 45 148 163 174 193 216 247 245 239 241 254 320 343 341 47
305 248 217 281 321 320 301 226 224 226 236 225 239 220 245 271 267 264 252 254 203 297 264 296 254 220 130 245 269 292 284 267 307 309 316 11 348 346 347 343 343 83 121 157 175 186 214 239 209 132 4 334 351 38
263 286 282 290 330 332 235 208 235 245 246 238 240 228 209 224 251 256 233 218 221 243 253 249 301 275 239 312 281 247 245 288 299 309 337 359 2 348 336 325 320 83 97 97 97 116 111 81 58 4 328 321 11 51
290 276 266 281 313 311 273 220 207 262 250 244 245 241 236 243 233 250 258 217 215 214 276 254 254 231 232 236 320 337 13 334 331 327 333 354 356 351 351 26 38 60 68 67 56 55 75 56 28 353 314 143 117 85
297 294 283 251 231 248 250 232 200 254 272 277 261 261 242 241 265 234 223 193 196 210 223 233 233 235 230 302 266 296 319 320 346 347 355 348 345 348 18 32 21 15 40 64 61 58 52 39 22 22 31 41 74 67
320 359 333 179 192 224 286 284 237 230 269 256 278 291 270 245 249 239 211 164 182 220 238 242 246 248 273 282 292 302 314 329 317 12 311 311 331 1 14 8 10 10 35 33 67 53 60 54 21 30 30 64 75 72
277 304 266 212 228 212 244 233 253 290 277 276 284 267 280 279 264 213 154 205 234 237 225 245 264 265 277 286 285 294 300 308 315 327 331 350 353 347 350 346 347 358 4 355 63 43 34 44 42 50 39 64 85 80
288 277 246 234 264 222 264 188 247 229 268 272 276 268 258 272 337 315 249 223 245 224 223 249 257 255 254 277 283 296 295 293 350 328 343 333 331 328 327 352 340 37 51 5 61 48 39 45 48 59 66 60 56 56
285 264 259 254 217 265 269 246 224 260 276 267 258 288 300 322 356 321 280 284 256 265 225 257 250 260 261 242 246 268 291 303 75 285 298 295 308 320 320 326 354 100 111 99 75 61 55 54 57 59 57 61 57 52
308 274 187 273 254 262 267 287 273 275 273 269 280 272 336 3 341 347 319 291 283 309 307 301 285 253 266 294 310 307 296 358 58 299 283 266 246 313 255 60 66 61 113 94 91 84 67 68 70 69 62 66 68 62
271 218 201 292 314 289 313 315 335 308 324 309 338 342 324 342 187 254 258 271 301 282 309 303 307 327 332 246 274 296 345 34 225 243 305 358 50 164 171 99 59 27 40 48 71 78 71 66 67 68 66 70 68 74
280 271 233 234 272 288 278 268 259 279 284 292 317 337 348 322 304 275 288 279 285 315 333 347 322 296 4 347 264 276 332 347 156 105 83 76 80 88 91 91 75 49 44 46 62 79 94 92 84 79 80 77 72 75
278 278 287 321 297 246 288 297 281 270 302 295 341 350 336 6 294 281 263 299 331 352 13 28 42 69 77 72 51 53 109 120 111 97 83 71 68 69 73 80 76 66 66 64 69 74 72 71 76 76 75 72 72 80
259 252 285 281 269 248 230 269 285 276 267 51 348 314 297 248 252 273 294 346 19 27 24 23 32 68 71 73 69 84 141 135 109 84 74 59 28 39 70 79 81 81 81 79 72 69 73 74 75 81 85 86 89 92
257 166 258 270 347 357 291 228 283 300 283 252 258 340 342 309 312 26 24 28 34 34 50 49 53 52 43 37 29 51 61 65 84 112 130 128 108 91 91 95 94 91 89 89 91 87 79 81 84 82 82 83 84 85
124 180 262 255 331 271 277 308 282 287 324 328 6 32 288 297 347 49 58 46 54 49 47 43 47 43 39 37 40 41 45 54 69 81 93 102 105 102 100 93 91 86 68 58 56 49 45 77 81 81 82 84 83 85
173 229 323 352 330 282 313 337 335 345 324 356 353 355 358 8 9 7 50 64 70 60 55 56 48 41 61 77 82 84 88 91 96 101 101 97 91 85 82 80 75 68 63 76 79 79 91 97 96 93 92 89 90 95
337 133 355 347 2 12 339 18 10 353 10 8 353 352 319 353 8 341 37 56 87 97 90 82 77 72 71 74 74 72 68 67 70 82 89 91 82 77 75 70 71 73 90 97 103 97 96 94 94 99 103 107 107 102